| time (UTC) | temp F | wind direction | speed MPH | gust MPH | rain 1hr in | rain 24hr in | rain mn in | humidity % | barometer mb |
| 20260901005528 | 72 | 225 | 0.0 | 0.0 | 0.00 | 0.32 | 0.32 | 94 | 1016.7 |
| 20260901005007 | 72 | 225 | 0.0 | 2.0 | 0.00 | 0.32 | 0.32 | 94 | 1016.4 |
| 20260901004551 | 72 | 225 | 0.0 | 2.0 | 0.00 | 0.32 | 0.32 | 94 | 1016.5 |
| 20260901004032 | 73 | 225 | 0.0 | 0.0 | 0.00 | 0.32 | 0.32 | 94 | 1016.2 |
| 20260901003511 | 72 | 225 | 0.0 | 0.0 | 0.00 | 0.32 | 0.32 | 94 | 1016.1 |
| 20260901003055 | 72 | 225 | 0.0 | 0.0 | 0.00 | 0.32 | 0.32 | 94 | 1016.0 |
| 20260901002535 | 73 | 225 | 0.0 | 0.0 | 0.00 | 0.32 | 0.32 | 94 | 1016.0 |
| 20260901002019 | 73 | 225 | 0.0 | 0.0 | 0.00 | 0.32 | 0.32 | 94 | 1016.0 |
| 20260901001606 | 73 | 225 | 0.0 | 0.0 | 0.00 | 0.32 | 0.32 | 94 | 1016.0 |
| 20260901001039 | 73 | 225 | 0.0 | 0.0 | 0.00 | 0.32 | 0.32 | 94 | 1016.0 |
| 20260901000525 | 73 | 225 | 0.0 | 0.0 | 0.00 | 0.32 | 0.32 | 94 | 1015.9 |
| 20260901000106 | 73 | 225 | 0.0 | 1.0 | 0.00 | 0.32 | 0.32 | 94 | 1016.0 |
| 20260831235525 | 73 | 225 | 0.0 | 0.0 | 0.00 | 0.32 | 0.32 | 94 | 1016.0 |
| 20260831235006 | 73 | 225 | 0.0 | 0.0 | 0.00 | 0.32 | 0.32 | 94 | 1016.0 |
| 20260831234550 | 73 | 225 | 0.0 | 0.0 | 0.00 | 0.32 | 0.32 | 94 | 1016.0 |
| 20260831234034 | 73 | 225 | 0.0 | 0.0 | 0.00 | 0.32 | 0.32 | 94 | 1015.9 |
| 20260831233509 | 74 | 225 | 0.0 | 0.0 | 0.00 | 0.32 | 0.32 | 94 | 1015.9 |
| 20260831233053 | 74 | 225 | 0.0 | 0.0 | 0.00 | 0.32 | 0.32 | 94 | 1016.0 |
| 20260831232533 | 74 | 225 | 0.0 | 0.0 | 0.00 | 0.32 | 0.32 | 94 | 1015.9 |
| 20260831232014 | 74 | 225 | 0.0 | 0.0 | 0.00 | 0.32 | 0.32 | 94 | 1016.0 |
| 20260831231602 | 74 | 225 | 0.0 | 0.0 | 0.00 | 0.32 | 0.32 | 94 | 1016.1 |
| 20260831231037 | 74 | 225 | 0.0 | 0.0 | 0.00 | 0.32 | 0.32 | 94 | 1015.9 |
| 20260831230517 | 74 | 225 | 0.0 | 0.0 | 0.00 | 0.32 | 0.32 | 94 | 1015.9 |
| 20260831230139 | 74 | 225 | 0.0 | 0.0 | 0.00 | 0.32 | 0.32 | 94 | 1016.0 |
| 20260831225523 | 74 | 225 | 0.0 | 0.0 | 0.00 | 0.32 | 0.32 | 94 | 1016.0 |
| 20260831225003 | 74 | 225 | 0.0 | 0.0 | 0.00 | 0.32 | 0.32 | 93 | 1015.9 |
| 20260831224547 | 74 | 225 | 0.0 | 0.0 | 0.00 | 0.32 | 0.32 | 94 | 1015.8 |
| 20260831224027 | 74 | 225 | 0.0 | 0.0 | 0.00 | 0.32 | 0.32 | 94 | 1016.0 |
| 20260831223507 | 74 | 225 | 0.0 | 4.0 | 0.00 | 0.32 | 0.32 | 94 | 1016.1 |
| 20260831223051 | 74 | 225 | 0.0 | 4.0 | 0.00 | 0.32 | 0.32 | 94 | 1016.1 |
| 20260831222530 | 74 | 225 | 0.0 | 2.0 | 0.00 | 0.32 | 0.32 | 94 | 1016.2 |
| 20260831222012 | 74 | 225 | 0.0 | 5.0 | 0.00 | 0.32 | 0.32 | 94 | 1016.2 |
| 20260831221623 | 74 | 225 | 0.0 | 5.0 | 0.00 | 0.32 | 0.32 | 94 | 1016.2 |
| 20260831221035 | 74 | 224 | 0.0 | 5.0 | 0.00 | 0.32 | 0.32 | 95 | 1016.3 |
| 20260831220515 | 74 | 225 | 0.0 | 0.0 | 0.00 | 0.32 | 0.32 | 95 | 1016.4 |
| 20260831220059 | 74 | 225 | 0.0 | 0.0 | 0.00 | 0.32 | 0.32 | 95 | 1016.3 |
| 20260831215524 | 74 | 225 | 0.0 | 0.0 | 0.00 | 0.32 | 0.32 | 95 | 1016.3 |
| 20260831215000 | 74 | 225 | 0.0 | 0.0 | 0.00 | 0.32 | 0.32 | 95 | 1016.4 |
| 20260831214548 | 74 | 225 | 0.0 | 0.0 | 0.00 | 0.32 | 0.32 | 95 | 1016.5 |
| 20260831214028 | 74 | 225 | 0.0 | 0.0 | 0.00 | 0.32 | 0.32 | 95 | 1016.6 |
| 20260831213505 | 74 | 225 | 0.0 | 0.0 | 0.00 | 0.32 | 0.32 | 95 | 1016.6 |
| 20260831213054 | 74 | 225 | 0.0 | 0.0 | 0.00 | 0.32 | 0.32 | 95 | 1016.7 |
| 20260831212529 | 74 | 225 | 0.0 | 0.0 | 0.00 | 0.32 | 0.32 | 95 | 1016.6 |
| 20260831212009 | 74 | 225 | 0.0 | 2.0 | 0.00 | 0.32 | 0.32 | 95 | 1016.6 |
| 20260831211603 | 74 | 225 | 0.0 | 2.0 | 0.00 | 0.32 | 0.32 | 95 | 1016.6 |
| 20260831211034 | 74 | 225 | 0.0 | 0.0 | 0.00 | 0.32 | 0.32 | 95 | 1016.6 |
| 20260831210515 | 74 | 225 | 0.0 | 0.0 | 0.00 | 0.32 | 0.32 | 95 | 1016.5 |
| 20260831210057 | 74 | 225 | 0.0 | 0.0 | 0.00 | 0.32 | 0.32 | 95 | 1016.3 |
| 20260831205519 | 73 | 225 | 0.0 | 0.0 | 0.00 | 0.32 | 0.32 | 95 | 1016.4 |
| 20260831205103 | 73 | 225 | 0.0 | 0.0 | 0.00 | 0.32 | 0.32 | 95 | 1016.4 |
| 20260831204543 | 73 | 225 | 0.0 | 0.0 | 0.00 | 0.32 | 0.32 | 95 | 1016.3 |
| 20260831204023 | 73 | 225 | 0.0 | 0.0 | 0.00 | 0.32 | 0.32 | 95 | 1015.9 |
| 20260831203504 | 73 | 225 | 0.0 | 0.0 | 0.00 | 0.32 | 0.32 | 95 | 1016.1 |
| 20260831203048 | 73 | 225 | 0.0 | 0.0 | 0.00 | 0.32 | 0.32 | 95 | 1016.3 |
| 20260831202531 | 73 | 225 | 0.0 | 0.0 | 0.01 | 0.32 | 0.32 | 95 | 1016.2 |
| 20260831202007 | 73 | 225 | 0.0 | 0.0 | 0.01 | 0.32 | 0.32 | 95 | 1016.3 |
| 20260831201555 | 73 | 225 | 0.0 | 0.0 | 0.01 | 0.32 | 0.32 | 95 | 1016.3 |
| 20260831201031 | 73 | 225 | 0.0 | 0.0 | 0.01 | 0.34 | 0.32 | 95 | 1016.4 |
| 20260831200512 | 73 | 225 | 0.0 | 0.0 | 0.01 | 0.34 | 0.32 | 95 | 1016.3 |
| 20260831200055 | 73 | 225 | 0.0 | 0.0 | 0.01 | 0.34 | 0.32 | 95 | 1016.5 |
| 20260831195517 | 73 | 225 | 0.0 | 0.0 | 0.01 | 0.34 | 0.32 | 95 | 1016.5 |
| 20260831195101 | 73 | 225 | 0.0 | 0.0 | 0.02 | 0.34 | 0.32 | 95 | 1016.5 |
| 20260831194615 | 72 | 225 | 0.0 | 0.0 | 0.03 | 0.34 | 0.32 | 95 | 1016.5 |
| 20260831194024 | 72 | 225 | 0.0 | 2.0 | 0.03 | 0.34 | 0.32 | 95 | 1016.6 |
| 20260831193500 | 72 | 225 | 0.0 | 2.0 | 0.03 | 0.34 | 0.32 | 95 | 1016.6 |
| 20260831193045 | 72 | 225 | 0.0 | 4.0 | 0.04 | 0.34 | 0.32 | 95 | 1016.6 |
| 20260831192524 | 72 | 225 | 0.0 | 4.0 | 0.04 | 0.33 | 0.31 | 95 | 1016.7 |
| 20260831192008 | 72 | 227 | 0.0 | 0.0 | 0.06 | 0.33 | 0.31 | 95 | 1016.8 |
| 20260831191549 | 72 | 227 | 0.0 | 0.0 | 0.07 | 0.33 | 0.31 | 95 | 1016.9 |
| 20260831191029 | 72 | 227 | 0.0 | 0.0 | 0.07 | 0.33 | 0.31 | 95 | 1016.9 |
| 20260831190510 | 72 | 227 | 0.0 | 1.0 | 0.07 | 0.33 | 0.31 | 95 | 1016.9 |
| 20260831190104 | 72 | 227 | 0.0 | 1.0 | 0.07 | 0.33 | 0.31 | 95 | 1017.0 |
| 20260831185512 | 72 | 227 | 0.0 | 0.0 | 0.06 | 0.32 | 0.30 | 95 | 1017.0 |
| 20260831185056 | 72 | 227 | 0.0 | 0.0 | 0.06 | 0.32 | 0.30 | 95 | 1017.2 |
| 20260831184544 | 72 | 227 | 0.0 | 0.0 | 0.05 | 0.31 | 0.28 | 95 | 1017.2 |
| 20260831184016 | 72 | 227 | 0.0 | 0.0 | 0.05 | 0.31 | 0.28 | 95 | 1017.2 |
| 20260831183600 | 72 | 227 | 0.0 | 0.0 | 0.05 | 0.31 | 0.28 | 95 | 1017.1 |
| 20260831183042 | 72 | 227 | 0.0 | 0.0 | 0.04 | 0.30 | 0.28 | 95 | 1017.2 |
| 20260831182521 | 72 | 227 | 0.0 | 0.0 | 0.03 | 0.28 | 0.27 | 95 | 1017.2 |
| 20260831182106 | 72 | 227 | 0.0 | 0.0 | 0.01 | 0.27 | 0.25 | 95 | 1017.2 |
| 20260831181544 | 72 | 227 | 0.0 | 0.0 | 0.00 | 0.26 | 0.24 | 95 | 1017.1 |
| 20260831181023 | 72 | 227 | 0.0 | 0.0 | 0.00 | 0.26 | 0.24 | 95 | 1017.1 |
| 20260831180504 | 72 | 227 | 0.0 | 2.0 | 0.00 | 0.26 | 0.24 | 95 | 1017.0 |
| 20260831180048 | 72 | 227 | 0.0 | 2.0 | 0.01 | 0.26 | 0.24 | 95 | 1017.0 |
| 20260831175511 | 72 | 227 | 0.0 | 0.0 | 0.01 | 0.26 | 0.24 | 95 | 1017.1 |
| 20260831175054 | 72 | 250 | 0.0 | 0.0 | 0.01 | 0.26 | 0.24 | 95 | 1017.4 |
| 20260831174547 | 72 | 250 | 0.0 | 0.0 | 0.01 | 0.26 | 0.24 | 95 | 1017.6 |
| 20260831174017 | 72 | 250 | 0.0 | 0.0 | 0.01 | 0.26 | 0.24 | 95 | 1017.4 |
| 20260831173558 | 72 | 250 | 0.0 | 0.0 | 0.01 | 0.26 | 0.24 | 95 | 1017.4 |
| 20260831173043 | 71 | 250 | 0.0 | 0.0 | 0.01 | 0.26 | 0.24 | 95 | 1017.4 |
| 20260831172517 | 71 | 250 | 0.0 | 0.0 | 0.01 | 0.26 | 0.24 | 95 | 1017.4 |
| 20260831172104 | 71 | 250 | 0.0 | 0.0 | 0.01 | 0.26 | 0.24 | 95 | 1017.3 |
| 20260831171544 | 71 | 250 | 0.0 | 0.0 | 0.01 | 0.26 | 0.24 | 95 | 1017.4 |
| 20260831171022 | 71 | 250 | 0.0 | 0.0 | 0.01 | 0.26 | 0.24 | 95 | 1017.4 |
| 20260831170504 | 71 | 250 | 0.0 | 0.0 | 0.01 | 0.26 | 0.24 | 95 | 1017.6 |
| 20260831170125 | 71 | 250 | 0.0 | 0.0 | 0.00 | 0.25 | 0.23 | 95 | 1017.7 |
| 20260831165507 | 71 | 250 | 0.0 | 0.0 | 0.00 | 0.25 | 0.23 | 95 | 1017.7 |
| 20260831165051 | 71 | 250 | 0.0 | 0.0 | 0.00 | 0.25 | 0.23 | 95 | 1017.7 |
| 20260831164534 | 71 | 250 | 0.0 | 4.0 | 0.00 | 0.25 | 0.23 | 95 | 1017.6 |
| 20260831164013 | 71 | 250 | 0.0 | 4.0 | 0.00 | 0.25 | 0.23 | 95 | 1017.7 |
| 20260831163556 | 71 | 283 | 0.0 | 4.0 | 0.00 | 0.25 | 0.23 | 95 | 1017.7 |
| 20260831163040 | 71 | 283 | 0.0 | 4.0 | 0.00 | 0.25 | 0.23 | 95 | 1017.7 |
| 20260831162515 | 70 | 284 | 0.0 | 2.0 | 0.00 | 0.25 | 0.23 | 95 | 1017.8 |
| 20260831162102 | 70 | 285 | 0.0 | 4.0 | 0.00 | 0.25 | 0.23 | 95 | 1017.7 |
| 20260831161540 | 70 | 286 | 0.0 | 4.0 | 0.00 | 0.25 | 0.23 | 95 | 1017.8 |
| 20260831161018 | 69 | 292 | 0.0 | 2.0 | 0.00 | 0.26 | 0.23 | 95 | 1017.8 |
| 20260831160603 | 69 | 293 | 0.0 | 1.0 | 0.00 | 0.26 | 0.23 | 95 | 1017.8 |
| 20260831160043 | 69 | 293 | 0.0 | 1.0 | 0.00 | 0.26 | 0.23 | 95 | 1017.8 |
| 20260831155505 | 69 | 293 | 0.0 | 0.0 | 0.00 | 0.26 | 0.23 | 95 | 1017.9 |
| 20260831155049 | 69 | 293 | 0.0 | 0.0 | 0.00 | 0.26 | 0.23 | 95 | 1017.9 |
| 20260831154526 | 68 | 293 | 0.0 | 0.0 | 0.00 | 0.26 | 0.23 | 95 | 1017.9 |
| 20260831154006 | 68 | 293 | 0.0 | 0.0 | 0.01 | 0.26 | 0.23 | 95 | 1018.1 |
| 20260831153549 | 68 | 293 | 0.0 | 0.0 | 0.01 | 0.26 | 0.23 | 95 | 1018.1 |
| 20260831153029 | 68 | 293 | 0.0 | 4.0 | 0.01 | 0.26 | 0.23 | 95 | 1018.3 |
| 20260831152510 | 68 | 293 | 0.0 | 4.0 | 0.01 | 0.26 | 0.23 | 95 | 1018.3 |
| 20260831152054 | 68 | 293 | 0.0 | 0.0 | 0.01 | 0.26 | 0.23 | 95 | 1018.3 |
| 20260831151534 | 68 | 293 | 0.0 | 0.0 | 0.01 | 0.26 | 0.23 | 95 | 1018.3 |
| 20260831151013 | 68 | 293 | 0.0 | 0.0 | 0.01 | 0.27 | 0.23 | 95 | 1018.2 |
| 20260831150558 | 68 | 293 | 0.0 | 0.0 | 0.01 | 0.27 | 0.23 | 95 | 1018.1 |
| 20260831150037 | 68 | 293 | 0.0 | 0.0 | 0.01 | 0.27 | 0.23 | 95 | 1018.2 |
| 20260831145604 | 67 | 293 | 0.0 | 0.0 | 0.01 | 0.27 | 0.23 | 95 | 1018.3 |
| 20260831145043 | 67 | 293 | 0.0 | 2.0 | 0.01 | 0.27 | 0.23 | 95 | 1018.1 |
| 20260831144528 | 67 | 293 | 0.0 | 2.0 | 0.01 | 0.27 | 0.23 | 95 | 1018.1 |
| 20260831144004 | 67 | 293 | 0.0 | 0.0 | 0.00 | 0.26 | 0.22 | 95 | 1017.8 |
| 20260831143549 | 67 | 293 | 0.0 | 0.0 | 0.00 | 0.26 | 0.22 | 95 | 1017.9 |
| 20260831143028 | 67 | 293 | 0.0 | 0.0 | 0.00 | 0.26 | 0.22 | 95 | 1017.8 |
| 20260831142509 | 67 | 293 | 0.0 | 0.0 | 0.01 | 0.26 | 0.22 | 95 | 1017.7 |
| 20260831142052 | 67 | 293 | 0.0 | 0.0 | 0.02 | 0.26 | 0.22 | 95 | 1017.8 |
| 20260831141532 | 67 | 293 | 0.0 | 0.0 | 0.02 | 0.26 | 0.22 | 95 | 1017.8 |
| 20260831141011 | 67 | 293 | 0.0 | 0.0 | 0.02 | 0.26 | 0.22 | 95 | 1017.8 |
| 20260831140555 | 67 | 293 | 0.0 | 0.0 | 0.03 | 0.26 | 0.22 | 95 | 1017.8 |
| 20260831140035 | 67 | 293 | 0.0 | 0.0 | 0.04 | 0.26 | 0.22 | 95 | 1018.1 |
| 20260831135602 | 67 | 293 | 0.0 | 0.0 | 0.07 | 0.26 | 0.22 | 95 | 1018.2 |
| 20260831135042 | 67 | 293 | 0.0 | 0.0 | 0.08 | 0.26 | 0.22 | 95 | 1018.2 |
| 20260831134522 | 67 | 293 | 0.0 | 2.0 | 0.09 | 0.26 | 0.22 | 95 | 1018.2 |
| 20260831134003 | 67 | 293 | 0.0 | 2.0 | 0.09 | 0.26 | 0.22 | 95 | 1018.2 |
| 20260831133545 | 66 | 293 | 0.0 | 0.0 | 0.09 | 0.26 | 0.22 | 95 | 1018.2 |
| 20260831133028 | 66 | 293 | 0.0 | 0.0 | 0.10 | 0.26 | 0.22 | 95 | 1018.3 |
| 20260831132505 | 66 | 293 | 0.0 | 0.0 | 0.09 | 0.25 | 0.21 | 95 | 1018.3 |
| 20260831132053 | 66 | 293 | 0.0 | 0.0 | 0.09 | 0.24 | 0.20 | 95 | 1018.4 |
| 20260831131530 | 66 | 293 | 0.0 | 0.0 | 0.10 | 0.24 | 0.20 | 95 | 1018.5 |
| 20260831131014 | 66 | 293 | 0.0 | 0.0 | 0.09 | 0.23 | 0.19 | 95 | 1018.4 |
| 20260831130557 | 66 | 293 | 0.0 | 0.0 | 0.09 | 0.23 | 0.19 | 95 | 1018.4 |
| 20260831130033 | 66 | 293 | 0.0 | 4.0 | 0.08 | 0.22 | 0.18 | 95 | 1018.3 |
| 20260831125559 | 66 | 293 | 0.0 | 4.0 | 0.05 | 0.19 | 0.15 | 95 | 1018.3 |
| 20260831125041 | 66 | 243 | 0.0 | 0.0 | 0.04 | 0.18 | 0.14 | 95 | 1018.4 |
| 20260831124520 | 66 | 243 | 0.0 | 0.0 | 0.03 | 0.17 | 0.13 | 95 | 1018.4 |
| 20260831124105 | 66 | 243 | 0.0 | 2.0 | 0.03 | 0.17 | 0.13 | 95 | 1018.3 |
| 20260831123543 | 66 | 243 | 0.0 | 2.0 | 0.02 | 0.16 | 0.12 | 95 | 1018.4 |
| 20260831123024 | 66 | 243 | 0.0 | 1.0 | 0.02 | 0.16 | 0.12 | 95 | 1018.4 |
| 20260831122504 | 66 | 243 | 0.0 | 1.0 | 0.02 | 0.16 | 0.12 | 95 | 1018.4 |
| 20260831122047 | 66 | 243 | 0.0 | 0.0 | 0.01 | 0.15 | 0.11 | 95 | 1018.3 |
| 20260831121528 | 66 | 243 | 0.0 | 2.0 | 0.00 | 0.14 | 0.10 | 95 | 1018.5 |
| 20260831121008 | 66 | 243 | 0.0 | 2.0 | 0.00 | 0.14 | 0.10 | 95 | 1018.5 |
| 20260831120552 | 66 | 243 | 0.0 | 0.0 | 0.00 | 0.14 | 0.10 | 95 | 1018.4 |
| 20260831120021 | 66 | 243 | 0.0 | 0.0 | 0.00 | 0.14 | 0.10 | 95 | 1018.5 |
| 20260831115555 | 66 | 243 | 0.0 | 0.0 | 0.00 | 0.14 | 0.10 | 95 | 1018.6 |
| 20260831115035 | 66 | 243 | 0.0 | 0.0 | 0.00 | 0.14 | 0.10 | 95 | 1018.6 |
| 20260831114515 | 66 | 243 | 0.0 | 0.0 | 0.00 | 0.14 | 0.10 | 95 | 1018.5 |
| 20260831114059 | 66 | 243 | 0.0 | 0.0 | 0.00 | 0.14 | 0.10 | 95 | 1018.2 |
| 20260831113539 | 66 | 243 | 0.0 | 0.0 | 0.00 | 0.14 | 0.10 | 95 | 1018.2 |
| 20260831113020 | 66 | 243 | 0.0 | 0.0 | 0.00 | 0.14 | 0.10 | 95 | 1018.1 |
| 20260831112606 | 66 | 243 | 0.0 | 0.0 | 0.00 | 0.14 | 0.10 | 95 | 1018.2 |
| 20260831112043 | 66 | 243 | 0.0 | 0.0 | 0.00 | 0.14 | 0.10 | 95 | 1018.0 |
| 20260831111529 | 66 | 243 | 0.0 | 0.0 | 0.01 | 0.14 | 0.10 | 95 | 1018.1 |
| 20260831111003 | 67 | 243 | 0.0 | 0.0 | 0.01 | 0.14 | 0.10 | 95 | 1018.2 |
| 20260831110549 | 67 | 243 | 0.0 | 0.0 | 0.01 | 0.14 | 0.10 | 95 | 1018.3 |
| 20260831110027 | 67 | 242 | 0.0 | 0.0 | 0.01 | 0.14 | 0.10 | 95 | 1018.3 |
| 20260831105554 | 67 | 243 | 0.0 | 2.0 | 0.01 | 0.14 | 0.10 | 95 | 1018.4 |
| 20260831105034 | 67 | 243 | 0.0 | 2.0 | 0.01 | 0.14 | 0.10 | 95 | 1018.4 |
| 20260831104520 | 67 | 242 | 0.0 | 2.0 | 0.01 | 0.14 | 0.10 | 95 | 1018.3 |
| 20260831104058 | 67 | 242 | 0.0 | 0.0 | 0.01 | 0.14 | 0.10 | 95 | 1018.2 |
| 20260831103539 | 67 | 242 | 0.0 | 0.0 | 0.01 | 0.14 | 0.10 | 95 | 1018.1 |
| 20260831103037 | 67 | 242 | 0.0 | 0.0 | 0.01 | 0.14 | 0.10 | 95 | 1018.2 |
| 20260831102604 | 67 | 242 | 0.0 | 1.0 | 0.01 | 0.14 | 0.10 | 95 | 1018.3 |
| 20260831102042 | 67 | 242 | 0.0 | 1.0 | 0.01 | 0.14 | 0.10 | 95 | 1018.4 |
| 20260831101522 | 67 | 242 | 0.0 | 1.0 | 0.00 | 0.13 | 0.09 | 95 | 1018.4 |
| 20260831101002 | 67 | 242 | 0.0 | 1.0 | 0.00 | 0.13 | 0.09 | 95 | 1018.4 |
| 20260831100546 | 67 | 242 | 0.0 | 0.0 | 0.00 | 0.13 | 0.09 | 95 | 1018.4 |
| 20260831100009 | 67 | 242 | 0.0 | 0.0 | 0.00 | 0.13 | 0.09 | 95 | 1018.4 |
| 20260831095550 | 67 | 242 | 0.0 | 0.0 | 0.00 | 0.13 | 0.09 | 95 | 1018.3 |
| 20260831095030 | 67 | 242 | 0.0 | 0.0 | 0.01 | 0.13 | 0.09 | 95 | 1018.5 |
| 20260831094522 | 67 | 242 | 0.0 | 0.0 | 0.01 | 0.13 | 0.09 | 95 | 1018.6 |
| 20260831094054 | 67 | 242 | 0.0 | 0.0 | 0.01 | 0.13 | 0.09 | 95 | 1018.6 |
| 20260831093534 | 68 | 242 | 0.0 | 0.0 | 0.01 | 0.13 | 0.09 | 95 | 1018.7 |
| 20260831093015 | 68 | 242 | 0.0 | 0.0 | 0.01 | 0.13 | 0.09 | 95 | 1018.6 |
| 20260831092600 | 68 | 242 | 0.0 | 0.0 | 0.01 | 0.13 | 0.09 | 95 | 1018.4 |
| 20260831092038 | 67 | 242 | 0.0 | 0.0 | 0.01 | 0.13 | 0.09 | 95 | 1018.4 |
| 20260831091518 | 67 | 242 | 0.0 | 0.0 | 0.01 | 0.13 | 0.09 | 95 | 1018.4 |
| 20260831091103 | 67 | 242 | 0.0 | 0.0 | 0.01 | 0.13 | 0.09 | 95 | 1018.3 |
| 20260831090542 | 67 | 242 | 0.0 | 0.0 | 0.01 | 0.13 | 0.09 | 95 | 1018.4 |
| 20260831090005 | 67 | 242 | 0.0 | 0.0 | 0.01 | 0.13 | 0.09 | 95 | 1018.5 |
| 20260831085550 | 67 | 242 | 0.0 | 0.0 | 0.01 | 0.13 | 0.09 | 95 | 1018.6 |
| 20260831085028 | 67 | 242 | 0.0 | 0.0 | 0.00 | 0.12 | 0.08 | 95 | 1018.6 |
| 20260831084508 | 67 | 242 | 0.0 | 0.0 | 0.00 | 0.12 | 0.08 | 95 | 1018.7 |
| 20260831084052 | 67 | 242 | 0.0 | 0.0 | 0.00 | 0.12 | 0.08 | 95 | 1018.8 |
| 20260831083532 | 67 | 242 | 0.0 | 0.0 | 0.00 | 0.12 | 0.08 | 95 | 1018.7 |
| 20260831083020 | 67 | 242 | 0.0 | 0.0 | 0.00 | 0.12 | 0.08 | 95 | 1018.8 |
| 20260831082557 | 67 | 242 | 0.0 | 0.0 | 0.00 | 0.12 | 0.08 | 95 | 1018.9 |
| 20260831082036 | 67 | 242 | 0.0 | 0.0 | 0.00 | 0.12 | 0.08 | 95 | 1018.9 |
| 20260831081517 | 67 | 242 | 0.0 | 0.0 | 0.00 | 0.12 | 0.08 | 95 | 1018.9 |
| 20260831081059 | 67 | 242 | 0.0 | 0.0 | 0.00 | 0.12 | 0.08 | 95 | 1019.0 |
| 20260831080540 | 67 | 242 | 0.0 | 0.0 | 0.00 | 0.12 | 0.08 | 95 | 1019.0 |
| 20260831080012 | 67 | 242 | 0.0 | 0.0 | 0.01 | 0.12 | 0.08 | 95 | 1019.0 |
| 20260831075546 | 67 | 242 | 0.0 | 0.0 | 0.01 | 0.12 | 0.08 | 95 | 1019.0 |
| 20260831075026 | 67 | 242 | 0.0 | 0.0 | 0.01 | 0.12 | 0.08 | 95 | 1019.0 |
| 20260831074506 | 67 | 242 | 0.0 | 0.0 | 0.01 | 0.12 | 0.08 | 95 | 1019.1 |
| 20260831074054 | 67 | 242 | 0.0 | 0.0 | 0.01 | 0.12 | 0.08 | 95 | 1019.1 |
| 20260831073530 | 67 | 242 | 0.0 | 0.0 | 0.02 | 0.12 | 0.08 | 94 | 1019.1 |
| 20260831073023 | 68 | 242 | 0.0 | 0.0 | 0.02 | 0.12 | 0.08 | 94 | 1019.2 |
| 20260831072555 | 68 | 242 | 0.0 | 0.0 | 0.03 | 0.12 | 0.08 | 94 | 1019.2 |
| 20260831072034 | 68 | 242 | 0.0 | 0.0 | 0.03 | 0.12 | 0.08 | 94 | 1019.3 |
| 20260831071514 | 68 | 242 | 0.0 | 0.0 | 0.04 | 0.12 | 0.08 | 94 | 1019.2 |
| 20260831071059 | 68 | 242 | 0.0 | 0.0 | 0.05 | 0.12 | 0.08 | 94 | 1019.3 |
| 20260831070542 | 68 | 242 | 0.0 | 0.0 | 0.07 | 0.12 | 0.08 | 94 | 1019.3 |
| 20260831070123 | 68 | 242 | 0.0 | 0.0 | 0.06 | 0.11 | 0.07 | 95 | 1019.3 |
| 20260831065545 | 68 | 242 | 0.0 | 0.0 | 0.07 | 0.11 | 0.07 | 94 | 1019.2 |
| 20260831065025 | 68 | 242 | 0.0 | 0.0 | 0.07 | 0.11 | 0.07 | 94 | 1019.2 |
| 20260831064504 | 68 | 242 | 0.0 | 0.0 | 0.07 | 0.11 | 0.07 | 94 | 1019.3 |
| 20260831064048 | 68 | 242 | 0.0 | 0.0 | 0.07 | 0.11 | 0.07 | 94 | 1019.2 |
| 20260831063528 | 68 | 242 | 0.0 | 0.0 | 0.06 | 0.10 | 0.06 | 94 | 1019.3 |
| 20260831063012 | 68 | 242 | 0.0 | 0.0 | 0.06 | 0.10 | 0.06 | 94 | 1019.5 |
| 20260831062552 | 68 | 242 | 0.0 | 0.0 | 0.05 | 0.09 | 0.05 | 94 | 1019.4 |
| 20260831062032 | 68 | 242 | 0.0 | 0.0 | 0.05 | 0.09 | 0.05 | 94 | 1019.3 |
| 20260831061512 | 68 | 242 | 0.0 | 0.0 | 0.04 | 0.08 | 0.04 | 94 | 1019.4 |
| 20260831061055 | 68 | 242 | 0.0 | 0.0 | 0.03 | 0.07 | 0.03 | 94 | 1019.6 |
| 20260831060538 | 68 | 242 | 0.0 | 0.0 | 0.01 | 0.05 | 0.01 | 94 | 1019.6 |
| 20260831060126 | 68 | 242 | 0.0 | 0.0 | 0.01 | 0.05 | 0.01 | 94 | 1019.6 |
| 20260831055542 | 68 | 242 | 0.0 | 0.0 | 0.00 | 0.04 | 0.00 | 94 | 1019.6 |
| 20260831055022 | 68 | 242 | 0.0 | 0.0 | 0.00 | 0.04 | 0.00 | 94 | 1019.7 |
| 20260831054502 | 68 | 242 | 0.0 | 0.0 | 0.00 | 0.04 | 0.00 | 94 | 1019.6 |
| 20260831054046 | 68 | 242 | 0.0 | 0.0 | 0.00 | 0.04 | 0.00 | 94 | 1019.7 |
| 20260831053526 | 68 | 242 | 0.0 | 0.0 | 0.00 | 0.04 | 0.00 | 94 | 1019.7 |
| 20260831053012 | 68 | 242 | 0.0 | 0.0 | 0.00 | 0.04 | 0.00 | 94 | 1019.8 |
| 20260831052550 | 68 | 242 | 0.0 | 0.0 | 0.00 | 0.04 | 0.00 | 94 | 1019.7 |
| 20260831052029 | 68 | 242 | 0.0 | 0.0 | 0.00 | 0.04 | 0.00 | 94 | 1019.6 |
| 20260831051512 | 68 | 242 | 0.0 | 0.0 | 0.00 | 0.04 | 0.00 | 94 | 1019.6 |
| 20260831051054 | 68 | 242 | 0.0 | 0.0 | 0.00 | 0.04 | 0.00 | 94 | 1019.5 |
| 20260831050534 | 68 | 242 | 0.0 | 0.0 | 0.00 | 0.04 | 0.00 | 94 | 1019.5 |
| 20260831050118 | 68 | 242 | 0.0 | 0.0 | 0.00 | 0.04 | 0.00 | 94 | 1019.6 |
| 20260831045540 | 68 | 242 | 0.0 | 0.0 | 0.00 | 0.04 | 0.00 | 94 | 1019.6 |
| 20260831045021 | 68 | 242 | 0.0 | 0.0 | 0.00 | 0.04 | 0.00 | 94 | 1019.7 |
| 20260831044604 | 68 | 242 | 0.0 | 0.0 | 0.00 | 0.04 | 0.00 | 94 | 1019.7 |
| 20260831044045 | 68 | 242 | 0.0 | 0.0 | 0.00 | 0.04 | 0.00 | 94 | 1019.7 |
| 20260831043524 | 68 | 242 | 0.0 | 0.0 | 0.00 | 0.04 | 0.00 | 94 | 1019.5 |
| 20260831043004 | 68 | 242 | 0.0 | 0.0 | 0.00 | 0.04 | 0.00 | 94 | 1019.6 |
| 20260831042551 | 68 | 242 | 0.0 | 0.0 | 0.00 | 0.04 | 0.00 | 94 | 1019.5 |
| 20260831042028 | 68 | 242 | 0.0 | 0.0 | 0.00 | 0.04 | 0.00 | 94 | 1019.6 |
| 20260831041510 | 68 | 242 | 0.0 | 0.0 | 0.00 | 0.04 | 0.00 | 94 | 1019.5 |
| 20260831041052 | 68 | 242 | 0.0 | 0.0 | 0.00 | 0.04 | 0.04 | 94 | 1019.4 |
| 20260831040532 | 68 | 242 | 0.0 | 0.0 | 0.00 | 0.04 | 0.04 | 94 | 1019.4 |
| 20260831040115 | 68 | 242 | 0.0 | 0.0 | 0.00 | 0.04 | 0.04 | 94 | 1019.4 |
| 20260831035538 | 68 | 242 | 0.0 | 0.0 | 0.00 | 0.04 | 0.04 | 93 | 1019.5 |
| 20260831035018 | 68 | 242 | 0.0 | 0.0 | 0.00 | 0.04 | 0.04 | 93 | 1019.6 |
| 20260831034602 | 68 | 242 | 0.0 | 0.0 | 0.00 | 0.04 | 0.04 | 93 | 1019.6 |
| 20260831034043 | 68 | 242 | 0.0 | 0.0 | 0.00 | 0.04 | 0.04 | 93 | 1019.6 |
| 20260831033522 | 68 | 242 | 0.0 | 0.0 | 0.00 | 0.04 | 0.04 | 93 | 1019.6 |
| 20260831033004 | 68 | 242 | 0.0 | 0.0 | 0.00 | 0.04 | 0.04 | 93 | 1019.6 |
| 20260831032546 | 68 | 242 | 0.0 | 0.0 | 0.00 | 0.04 | 0.04 | 93 | 1019.6 |
| 20260831032026 | 68 | 242 | 0.0 | 0.0 | 0.00 | 0.04 | 0.04 | 93 | 1019.6 |
| 20260831031505 | 68 | 242 | 0.0 | 2.0 | 0.00 | 0.04 | 0.04 | 93 | 1019.6 |
| 20260831031050 | 68 | 242 | 0.0 | 2.0 | 0.00 | 0.04 | 0.04 | 93 | 1019.8 |
| 20260831030533 | 68 | 242 | 0.0 | 2.0 | 0.00 | 0.04 | 0.04 | 93 | 1019.7 |
| 20260831030120 | 68 | 242 | 0.0 | 2.0 | 0.00 | 0.04 | 0.04 | 93 | 1019.7 |
| 20260831025538 | 68 | 242 | 0.0 | 2.0 | 0.00 | 0.04 | 0.04 | 93 | 1019.7 |
| 20260831025017 | 67 | 242 | 0.0 | 0.0 | 0.00 | 0.04 | 0.04 | 93 | 1019.7 |
| 20260831024600 | 67 | 242 | 0.0 | 0.0 | 0.00 | 0.04 | 0.04 | 93 | 1019.8 |
| 20260831024040 | 67 | 242 | 0.0 | 2.0 | 0.00 | 0.04 | 0.04 | 93 | 1019.9 |
| 20260831023520 | 67 | 242 | 0.0 | 2.0 | 0.00 | 0.04 | 0.04 | 93 | 1020.0 |
| 20260831023103 | 67 | 242 | 0.0 | 4.0 | 0.00 | 0.04 | 0.04 | 93 | 1020.1 |
| 20260831022544 | 67 | 242 | 0.0 | 4.0 | 0.00 | 0.04 | 0.04 | 93 | 1020.0 |
| 20260831022024 | 67 | 242 | 0.0 | 2.0 | 0.00 | 0.04 | 0.04 | 93 | 1020.0 |
| 20260831021504 | 67 | 242 | 0.0 | 1.0 | 0.00 | 0.04 | 0.04 | 93 | 1019.7 |
| 20260831021048 | 67 | 242 | 0.0 | 1.0 | 0.00 | 0.04 | 0.04 | 93 | 1019.6 |
| 20260831020530 | 67 | 242 | 0.0 | 2.0 | 0.00 | 0.04 | 0.04 | 93 | 1019.7 |
| 20260831020113 | 67 | 242 | 0.0 | 2.0 | 0.00 | 0.04 | 0.04 | 93 | 1019.7 |
| 20260831015533 | 67 | 242 | 0.0 | 1.0 | 0.00 | 0.04 | 0.04 | 92 | 1019.9 |
| 20260831015013 | 67 | 242 | 0.0 | 0.0 | 0.00 | 0.04 | 0.04 | 92 | 1020.1 |
| 20260831014558 | 67 | 242 | 0.0 | 0.0 | 0.00 | 0.04 | 0.04 | 92 | 1020.1 |
| 20260831014038 | 67 | 242 | 0.0 | 4.0 | 0.00 | 0.04 | 0.04 | 92 | 1020.1 |
| 20260831013518 | 67 | 242 | 0.0 | 4.0 | 0.00 | 0.04 | 0.04 | 92 | 1020.2 |
| 20260831013102 | 67 | 242 | 0.0 | 4.0 | 0.00 | 0.04 | 0.04 | 92 | 1020.0 |
| 20260831012542 | 67 | 235 | 0.0 | 0.0 | 0.00 | 0.04 | 0.04 | 92 | 1020.0 |
| 20260831012025 | 67 | 235 | 0.0 | 2.0 | 0.00 | 0.04 | 0.04 | 92 | 1020.0 |
| 20260831011501 | 67 | 235 | 0.0 | 2.0 | 0.00 | 0.04 | 0.04 | 92 | 1019.9 |
| 20260831011045 | 67 | 235 | 0.0 | 2.0 | 0.00 | 0.04 | 0.04 | 92 | 1019.8 |
| 20260831010531 | 67 | 235 | 0.0 | 2.0 | 0.00 | 0.04 | 0.04 | 92 | 1019.6 |
| 20260831010109 | 67 | 235 | 0.0 | 2.0 | 0.00 | 0.04 | 0.04 | 92 | 1019.6 |